[[{"header":{"parameterUnit":"m.s-1","parameterCategory":1,"la1":30.2991,"la2":30.254,"lo1":-89.0895,"lo2":-89.0444,"dy":0.0017,"dx":0.0017,"nx":28,"ny":28,"refTime":"2023-08-24T09:00:00:Z","depth":0,"parameterNumber":2,"parameterNumberName":"U-component_of_WINDS"},"data":[0,0,0,0,0,0,0,0,0,0,0,0,0,0,0,0,0,0,0,0,0,0,0,0,0,0,0,0,0,0,0,0,0,0,0,0,0,0,0,0,0,0,0,0,0,0,0,0,0,0,0,0,0,0,0,0,0,0,3.3054,3.3056,0,3.3185,3.3186,3.3188,3.3176,3.3174,3.3172,3.3171,3.3304,3.3309,3.3314,0,0,0,0,0,0,0,0,0,0,0,0,0,3.2793,3.2798,3.3054,3.3056,3.3057,3.3185,3.3186,3.3188,3.3177,3.3174,3.3172,3.317,3.3302,3.3308,3.3315,0,0,0,0,0,0,0,0,0,0,0,0,0,3.2913,3.28,3.3054,3.3067,3.307,3.3184,3.3187,3.3189,3.3177,3.3174,3.3171,3.3169,3.33,3.3308,3.3316,3.3426,0,0,3.334,3.3344,0,0,0,0,0,0,0,0,3.2907,3.2923,3.3064,3.3066,3.3069,3.3161,3.3143,3.3268,3.3178,3.3136,3.3171,3.3167,3.3259,3.327,3.3301,3.3432,3.3437,3.3341,3.3346,3.335,3.3352,0,0,0,0,0,0,0,3.2898,3.2917,3.3106,3.3066,3.3069,3.3066,3.308,3.3167,3.3213,3.314,3.3139,3.3155,3.326,3.3293,3.3304,3.3439,3.3341,3.3348,3.3353,3.3356,3.3664,3.3668,0,0,0,0,0,0,3.2887,3.291,3.3102,3.311,3.2979,3.3073,3.3088,3.3135,3.3212,3.3221,3.3157,3.3154,3.3281,3.3295,3.3309,3.344,3.335,3.3357,3.3362,3.3661,3.3665,3.3669,0,0,0,0,0,0,3.2881,3.2904,3.3096,3.301,3.3034,3.3081,3.3133,3.3139,3.3172,3.3225,3.3233,3.3183,3.3279,3.3297,3.3396,3.3445,3.3361,3.3368,3.3657,3.3662,3.3667,3.3705,0,0,0,0,0,0,3.2874,3.2902,3.2945,3.3011,3.3039,3.3182,3.3136,3.3144,3.3187,3.3183,3.3251,3.326,3.3278,3.3384,3.3404,3.3454,3.3374,3.3653,3.3659,3.3665,3.37,3.3711,3.372,0,0,0,0,0,3.2865,3.2951,3.2947,3.297,3.3093,3.3185,3.3201,3.322,3.3191,3.3233,3.3267,3.3258,3.3437,3.3394,3.3417,3.347,3.365,3.3658,3.3665,3.3695,3.3709,3.372,0,0,0,0,0,0,3.2889,3.296,3.2956,3.3067,3.312,3.3183,3.3237,3.3234,3.3297,3.3291,3.3313,3.3328,3.3427,3.3459,3.341,3.3579,3.3539,3.3552,3.3555,3.3568,3.3578,3.3567,3.3381,0,0,0,0,0,3.2907,3.2976,3.3034,3.3126,3.3153,3.3191,3.3231,3.3242,3.3298,3.332,3.3361,3.3415,3.3483,3.3528,3.3594,3.3705,3.3719,3.3753,3.3763,3.3771,3.3781,3.384,3.3855,3.3693,3.3693,3.3693,0,0,3.2945,3.2993,3.3035,3.3132,3.3174,3.3244,3.321,3.3286,3.3337,3.3331,3.3426,3.3458,3.352,3.3625,3.3674,3.3655,3.3829,3.3781,3.3787,3.3792,3.3849,3.3864,3.3878,3.3698,3.3697,3.3697,0,0,3.305,3.3094,3.3174,3.3217,3.3282,3.3306,3.3325,3.3389,3.341,3.3506,3.3502,3.3564,3.3682,3.3725,3.3763,3.3884,3.3877,3.3905,3.3958,3.4015,3.4028,3.4039,3.4079,3.4094,3.3915,3.3915,3.3915,0,3.3089,3.3195,3.3215,3.3291,3.3333,3.3332,3.3412,3.3453,3.3536,3.3564,3.3542,3.3689,3.3731,3.3844,3.3874,3.3905,3.3926,3.3896,3.4024,3.4036,3.4047,3.4085,3.4101,3.3917,3.3917,3.3917,3.3917,0,3.3238,3.3312,3.3369,3.3448,3.3497,3.3575,3.3606,3.3653,3.3659,3.3685,3.3782,3.3832,3.3907,3.3936,3.3943,3.405,3.4036,3.402,3.3979,3.4064,3.4101,3.4116,3.3921,3.392,3.392,3.3919,0,0,3.3361,3.345,3.3471,3.3506,3.3577,3.3634,3.3711,3.3784,3.3823,3.3881,3.3944,3.4044,3.4028,3.4071,3.4083,3.4134,3.4223,3.411,3.4112,3.4127,3.4342,3.4352,3.4369,3.422,3.4223,3.4225,3.4335,0,3.347,3.3607,3.3628,3.3748,3.3815,3.3814,3.3881,3.3932,3.3959,3.4019,3.4049,3.4118,3.4093,3.4118,3.4169,3.4201,3.4266,3.4194,3.4278,3.4281,3.426,3.4389,3.44,3.4502,3.435,3.4353,3.4355,0,3.3617,3.3677,3.3804,3.3864,3.3893,3.3953,3.4021,3.4079,3.4136,3.4152,3.4199,3.4205,3.4284,3.4242,3.4351,3.4301,3.4337,3.4358,3.4363,3.4369,3.4321,3.4396,3.4535,3.4549,3.4378,3.4376,3.4374,0,3.369,3.3803,3.3893,3.3924,3.3998,3.4039,3.4072,3.4126,3.4168,3.4228,3.4255,3.4323,3.436,3.4412,3.4436,3.4404,3.4542,3.4503,3.4556,3.4555,3.4583,3.458,3.4727,3.4611,3.461,3.461,3.461,0,3.3808,3.3885,3.3927,3.3982,3.4068,3.409,3.4174,3.4206,3.4253,3.4314,3.4318,3.4375,3.4404,3.4465,3.4484,3.4569,3.4587,3.46,3.4604,3.4599,3.4596,3.462,3.4613,3.4614,3.4613,3.4612,3.4612,0,3.3903,3.3935,3.4032,3.4094,3.4111,3.4171,3.4223,3.4276,3.4303,3.4379,3.4399,3.444,3.4512,3.4541,3.4629,3.4642,3.4739,3.4739,3.472,3.472,3.4771,3.4764,3.4935,3.4958,3.4829,3.4831,3.4832,0,3.3976,3.4035,3.4103,3.4143,3.4177,3.4243,3.4286,3.431,3.4355,3.4423,3.4468,3.4539,3.4597,3.4712,3.4749,3.4816,3.4816,3.4871,3.4826,3.4818,3.4813,3.4808,3.4813,3.4878,3.488,3.4881,3.4882,0,3.41,3.4112,3.4174,3.4241,3.4292,3.4346,3.4399,3.4432,3.4465,3.4514,3.4587,3.4632,3.4722,3.4792,3.4861,3.4894,3.4893,3.4896,3.4911,3.4905,3.489,3.4896,3.4739,3.4891,3.489,3.489,3.4889,3.4889,3.4184,3.4236,3.4291,3.4359,3.4401,3.445,3.4502,3.4536,3.4597,3.4671,3.4682,3.476,3.4814,3.4906,3.4942,3.5003,3.4988,3.5011,3.5017,3.5021,3.5023,3.4883,3.5016,3.5015,3.5015,3.5015,3.5015,0,3.4306,3.4341,3.4404,3.4477,3.4531,3.4526,3.4584,3.4629,3.4697,3.4748,3.4805,3.4888,3.4956,3.4999,3.5067,3.5107,3.5108,3.5124,3.512,3.5127,3.5033,3.5012,3.5122,3.5122,3.5122,3.5122,3.5122,3.5122,3.4375,3.4461,3.448,3.4587,3.4622,3.4698,3.4731,3.4776,3.4816,3.4908,3.4965,3.4993,3.504,3.5112,3.5174,3.5184,3.5208,3.5225,3.5234,3.5145,3.5134,3.5123,3.5103,3.523,3.523,3.5322,3.5323,3.5324]},{"header":{"parameterUnit":"m.s-1","parameterCategory":1,"la1":30.2991,"la2":30.254,"lo1":-89.0895,"lo2":-89.0444,"dy":0.0017,"dx":0.0017,"nx":28,"ny":28,"refTime":"2023-08-24T09:00:00:Z","depth":0,"parameterNumber":3,"parameterNumberName":"V-component_of_WINDS"},"data":[0,0,0,0,0,0,0,0,0,0,0,0,0,0,0,0,0,0,0,0,0,0,0,0,0,0,0,0,0,0,0,0,0,0,0,0,0,0,0,0,0,0,0,0,0,0,0,0,0,0,0,0,0,0,0,0,0,0,3.5058,3.5058,0,3.5062,3.5062,3.5062,3.4998,3.4996,3.4994,3.4993,3.4995,3.4997,3.4999,0,0,0,0,0,0,0,0,0,0,0,0,0,3.4994,3.4996,3.5058,3.5058,3.5058,3.5062,3.5062,3.5062,3.4998,3.4996,3.4994,3.4992,3.4995,3.4997,3.4999,0,0,0,0,0,0,0,0,0,0,0,0,0,3.5012,3.4996,3.5058,3.5027,3.5024,3.5062,3.5062,3.5062,3.4999,3.4996,3.4993,3.4991,3.4994,3.4997,3.4999,3.5067,0,0,3.5007,3.5008,0,0,0,0,0,0,0,0,3.5011,3.5015,3.5031,3.5029,3.5026,3.5027,3.504,3.5063,3.4999,3.5008,3.4993,3.499,3.5008,3.5009,3.5015,3.5067,3.5067,3.5007,3.5009,3.501,3.501,0,0,0,0,0,0,0,3.501,3.5014,3.506,3.5032,3.5029,3.5012,3.5012,3.5044,3.5023,3.5007,3.5003,3.5004,3.5006,3.5013,3.5015,3.5067,3.5007,3.5009,3.5011,3.5012,3.5172,3.5175,0,0,0,0,0,0,3.5013,3.5014,3.5059,3.506,3.5012,3.5015,3.5015,3.5029,3.5022,3.5018,3.5006,3.5001,3.501,3.5012,3.5015,3.5092,3.501,3.5012,3.5014,3.5169,3.5173,3.5176,0,0,0,0,0,0,3.5012,3.5018,3.5059,3.5035,3.5039,3.5019,3.5036,3.5031,3.5038,3.5021,3.5017,3.5018,3.5008,3.5011,3.5054,3.5091,3.5013,3.5016,3.5166,3.517,3.5174,3.5248,0,0,0,0,0,0,3.5011,3.5018,3.5044,3.5036,3.5041,3.5099,3.5038,3.5033,3.5042,3.5036,3.5031,3.5028,3.5006,3.5051,3.5057,3.5094,3.5018,3.5163,3.5168,3.5173,3.5242,3.5254,3.5265,0,0,0,0,0,3.5009,3.5065,3.5046,3.5052,3.5073,3.5101,3.5104,3.5079,3.5046,3.5071,3.506,3.5028,3.5087,3.5055,3.5062,3.51,3.516,3.5167,3.5173,3.5237,3.5252,3.5264,0,0,0,0,0,0,3.5077,3.5063,3.5042,3.5097,3.5101,3.5091,3.5122,3.5095,3.5108,3.5101,3.5069,3.5068,3.5116,3.5112,3.5078,3.5164,3.5117,3.5125,3.5165,3.5179,3.5189,3.5189,3.502,0,0,0,0,0,3.5099,3.5124,3.511,3.516,3.5163,3.5143,3.5154,3.5134,3.5136,3.5137,3.513,3.5133,3.5152,3.5165,3.5182,3.5242,3.5239,3.5271,3.5282,3.5292,3.5298,3.5328,3.5342,3.5196,3.5196,3.5196,0,0,3.5144,3.5139,3.5157,3.5174,3.5174,3.52,3.5144,3.5174,3.5192,3.5142,3.5181,3.5176,3.5177,3.5229,3.5251,3.5227,3.5338,3.5299,3.5307,3.5309,3.5336,3.535,3.5362,3.52,3.5199,3.5199,0,0,3.5238,3.5238,3.5279,3.5281,3.5282,3.5268,3.5278,3.5271,3.5265,3.5305,3.5267,3.5288,3.5322,3.5324,3.533,3.5424,3.5394,3.5431,3.5489,3.5518,3.553,3.554,3.5573,3.5585,3.5438,3.5438,3.5438,0,3.5294,3.5331,3.5303,3.5335,3.5343,3.5299,3.534,3.5343,3.535,3.5356,3.5329,3.537,3.5368,3.5418,3.5441,3.5448,3.5457,3.5431,3.5531,3.554,3.5549,3.558,3.5593,3.5442,3.5442,3.5441,3.5441,0,3.5398,3.5425,3.5458,3.5465,3.5477,3.5514,3.5491,3.5506,3.5485,3.5473,3.5513,3.5509,3.5524,3.5534,3.5515,3.5582,3.5567,3.5536,3.5489,3.5568,3.5596,3.5608,3.5448,3.5447,3.5445,3.5444,0,0,3.5536,3.5527,3.554,3.5542,3.554,3.556,3.5594,3.5608,3.5621,3.5627,3.5654,3.5683,3.5655,3.5661,3.5641,3.5667,3.5741,3.5633,3.5632,3.5652,3.5814,3.5836,3.585,3.5721,3.5723,3.5725,3.5813,0,3.5627,3.5684,3.566,3.572,3.5743,3.5701,3.573,3.5732,3.5722,3.574,3.5728,3.5749,3.571,3.5714,3.5738,3.5727,3.5773,3.572,3.5745,3.5746,3.5745,3.5865,3.5889,3.5972,3.5824,3.5826,3.5827,0,3.5741,3.5751,3.5813,3.5806,3.5814,3.5841,3.5852,3.587,3.587,3.5861,3.5868,3.5842,3.5874,3.5827,3.587,3.5835,3.5844,3.584,3.5842,3.5843,3.5791,3.5868,3.5998,3.6011,3.5845,3.5843,3.5842,0,3.5833,3.5863,3.5903,3.5907,3.59,3.5919,3.5917,3.5915,3.5925,3.5934,3.594,3.5953,3.596,3.597,3.5948,3.5916,3.5994,3.5946,3.5986,3.5987,3.6004,3.6003,3.6136,3.6011,3.6011,3.6011,3.6011,0,3.5936,3.5976,3.5945,3.5969,3.6012,3.5983,3.6026,3.6019,3.6018,3.604,3.6005,3.6026,3.5996,3.6014,3.5997,3.6035,3.6038,3.6031,3.6026,3.6034,3.6035,3.6038,3.6032,3.6014,3.6014,3.6013,3.6012,0,3.6047,3.6028,3.6069,3.6059,3.6057,3.6088,3.6079,3.6101,3.6089,3.6117,3.6122,3.6103,3.6122,3.6101,3.612,3.6108,3.6158,3.6145,3.6158,3.6154,3.6196,3.6192,3.6336,3.6352,3.6218,3.6219,3.622,0,3.6113,3.6142,3.6135,3.6147,3.6147,3.6168,3.6178,3.6151,3.6162,3.6165,3.6186,3.6203,3.6215,3.6249,3.6236,3.6249,3.6235,3.6285,3.6237,3.6244,3.6235,3.6233,3.6235,3.6294,3.6296,3.6297,3.6298,0,3.6233,3.6222,3.6238,3.625,3.6262,3.627,3.6276,3.6288,3.626,3.6274,3.6294,3.6303,3.6322,3.6339,3.6348,3.6346,3.6317,3.6314,3.6324,3.6331,3.6337,3.6333,3.6184,3.631,3.6309,3.6308,3.6308,3.6307,3.6323,3.6346,3.6344,3.6362,3.6364,3.6369,3.6389,3.6379,3.6395,3.6408,3.6391,3.6415,3.6414,3.6424,3.6425,3.6443,3.6422,3.6437,3.644,3.6444,3.645,3.6335,3.6445,3.6445,3.6444,3.6444,3.6444,0,3.644,3.6436,3.6453,3.6462,3.6476,3.6448,3.6452,3.6466,3.6487,3.6489,3.6501,3.6524,3.654,3.6528,3.6541,3.6558,3.6546,3.6563,3.6561,3.656,3.6469,3.6458,3.6573,3.6573,3.6573,3.6573,3.6572,3.6572,3.6502,3.654,3.6528,3.6566,3.6562,3.6585,3.659,3.6595,3.6596,3.6622,3.6635,3.6628,3.6624,3.6636,3.665,3.6646,3.6652,3.6674,3.6665,3.6579,3.6567,3.6555,3.6545,3.6675,3.6676,3.6755,3.6756,3.6756]}]]